Weather History for Bishop, CA

Change the Weather History Date:

Sunday, June 16, 2013

  Actual Average Record
Temperature  
Mean Temperature 71 °F 72 °F  
Max Temperature 94 °F 92 °F 104 °F (1961)
Min Temperature 48 °F 51 °F 28 °F (1944)
Degree Days  
Heating Degree Days 0 0  
Month to date heating degree days 0 17  
Since 1 June heating degree days 0 17  
Since 1 July heating degree days 3851 4175  
Cooling Degree Days 6 7  
Month to date cooling degree days 169 90  
Year to date cooling degree days 255 158  
Since 1 June cooling degree days 169 90  
Growing Degree Days 20 (Base 50)    
Moisture  
Dew Point 21 °F    
Average Humidity 19    
Maximum Humidity 33    
Minimum Humidity 4    
Precipitation  
Precipitation 0.00 in 0.01 in 0.30 in (2009)
Month to date precipitation T 0.12  
Year to date precipitation 0.47 3.00  
Snow  
Snow 0.00 in 0.00 in - ()
Month to date snowfall 0.0 0.0  
Since 1 June snowfall 0.0 0.0  
Since 1 July snowfall 2.8 6.8  
Snow Depth 0.00 in    
Sea Level Pressure  
Sea Level Pressure 29.85 in    
Wind  
Wind Speed 5 mph (NW)    
Max Wind Speed 17 mph    
Max Gust Speed 33 mph    
Visibility 10 miles    
Events      
T = Trace of Precipitation, MM = Missing Value Source: NWS Daily Summary

Daily Weather History Graph

Daily Weather History Graph

Search for Another Location

Airport:

Trip Planner

Search our weather history database for the weather conditions in past years. The results will help you decide how hot, cold, wet, or windy it might be!

Date:

Astronomy

Jun. 16, 2013 Rise Set
Actual Time 5:32 AM PDT 8:16 PM PDT
Civil Twilight 5:01 AM PDT 8:47 PM PDT
Nautical Twilight 4:22 AM PDT 9:26 PM PDT
Astronomical Twilight 3:38 AM PDT 10:10 PM PDT
Moon 1:04 PM PDT 12:31 AM PDT
Length of Visible Light 15h 46m
Length of Day
14h 44m
Waxing Crescent, 51% of the Moon is Illuminated
Jun 16
Waxing Crescent
Jun 23
Full
Jun 29
Last Quarter
Jul 8
New
Jul 15
First Quarter

Hourly Weather History & Observations

Time (PDT) Temp. Dew Point Humidity Pressure Visibility Wind Dir Wind Speed Gust Speed Precip Events Conditions
12:56 AM 64.0 °F 27.0 °F 25% 29.81 in 10.0 mi NW 3.5 mph - N/A   Clear
1:56 AM 57.0 °F 28.0 °F 33% 29.83 in 10.0 mi ENE 3.5 mph - N/A   Clear
2:56 AM 55.0 °F 25.0 °F 31% 29.84 in 10.0 mi NW 4.6 mph - N/A   Clear
3:56 AM 54.0 °F 25.0 °F 33% 29.85 in 10.0 mi NW 3.5 mph - N/A   Clear
4:56 AM 53.1 °F 25.0 °F 34% 29.86 in 10.0 mi West 5.8 mph - N/A   Clear
5:56 AM 55.0 °F 26.1 °F 33% 29.88 in 10.0 mi Calm Calm - N/A   Clear
6:56 AM 61.0 °F 25.0 °F 25% 29.89 in 10.0 mi Calm Calm - N/A   Clear
7:56 AM 69.1 °F 21.9 °F 17% 29.90 in 10.0 mi WNW 3.5 mph - N/A   Clear
8:56 AM 75.0 °F 21.9 °F 14% 29.91 in 10.0 mi Calm Calm - N/A   Clear
9:56 AM 80.1 °F 18.0 °F 10% 29.90 in 10.0 mi Calm Calm - N/A   Clear
10:56 AM 84.0 °F 19.9 °F 9% 29.89 in 10.0 mi Variable 3.5 mph - N/A   Clear
11:56 AM 88.0 °F 15.1 °F 7% 29.87 in 10.0 mi NNW 6.9 mph - N/A   Clear
12:56 PM 90.0 °F 12.0 °F 6% 29.85 in 10.0 mi Variable 4.6 mph 18.4 mph N/A   Clear
1:56 PM 91.0 °F 9.0 °F 5% 29.85 in 10.0 mi Variable 5.8 mph - N/A   Clear
2:56 PM 91.9 °F 10.0 °F 5% 29.82 in 10.0 mi Variable 3.5 mph - N/A   Clear
3:56 PM 93.0 °F 10.9 °F 5% 29.81 in 10.0 mi Variable 4.6 mph - N/A   Clear
4:56 PM 93.0 °F 12.9 °F 5% 29.81 in 10.0 mi NNW 9.2 mph - N/A   Clear
5:56 PM 91.0 °F 12.0 °F 5% 29.79 in 10.0 mi West 5.8 mph - N/A   Clear
6:56 PM 90.0 °F 14.0 °F 6% 29.79 in 10.0 mi WSW 4.6 mph - N/A   Clear
7:56 PM 84.9 °F 17.1 °F 8% 29.80 in 10.0 mi SE 3.5 mph - N/A   Clear
8:56 PM 82.0 °F 28.0 °F 14% 29.83 in 10.0 mi NE 9.2 mph - N/A   Clear
9:56 PM 75.0 °F 30.9 °F 20% 29.87 in 10.0 mi WNW 9.2 mph - N/A   Clear
10:56 PM 75.9 °F 32.0 °F 20% 29.88 in 10.0 mi NNW 13.8 mph - N/A   Clear
11:56 PM 73.0 °F 30.0 °F 20% 29.89 in 10.0 mi North 9.2 mph - N/A   Clear